Location: North Bay Shore
(40.7362°N, 73.2626°W)
Time: 09:34:54
(UTC+00:00)

Cosmos 1606 Rocket - Pass Details

Date: 29 October 2020
Orbit: 604 x 631 km, 82.5° (Epoch: 23 November)

Event Time Altitude Azimuth Distance (km) Brightness Sun altitude
Rises 22:29:05 0° 196° (SSW) 2,861 7.4 -7.6°
Reaches altitude 10° 22:31:19 10° 200° (SSW) 1,965 6.6 -8.0°
Maximum altitude 22:35:36 58° 280° (W) 726 4.3 -8.8°
Drops below altitude 10° 22:39:58 10° 360° (N) 1,998 6.1 -9.6°
Sets 22:42:15 0° 4° (N) 2,913 6.9 -10.0°
